Tracking 29069 objects as of 18-Jul-2024
HD Live streaming from Space Station
objects crossing your sky now

SL-8 DEB *

Track SL-8 DEB * now!
10-day predictions


NORAD ID: 13499
Int'l Code: 1976-069D
Perigee: 696.2 km
Apogee: 720.3 km
Inclination: 74.1 °
Period: 98.8 minutes
Semi major axis: 7079 km
RCS: 0.0077 m2 (small)
Launch date: July 15, 1976
Source: Commonwealth of Independent States (former USSR) (CIS)
Launch site: PLESETSK MISSILE AND SPACE COMPLEX (PKMTR)

Note: This is SATELLITE DEBRIS
Your satellite tracking list
Your tracking list is empty




NASA's NSSDC Master Catalog

Two Line Element Set (TLE):
1 13499U 76069D   24199.88162373  .00004225  00000-0  93275-3 0  9999
2 13499  74.0535 222.2685 0016964 278.7798 139.4322 14.57547542293779
Source of the keplerian elements: AFSPC